TimeEDT,TemperatureF,Dew PointF,Humidity,Sea Level PressureIn,VisibilityMPH,Wind Direction,Wind SpeedMPH,Gust SpeedMPH,PrecipitationIn,Events,Conditions,WindDirDegrees,DateUTC
12:51 AM,44.1,32.0,63,30.07,-9999.0,WNW,5.8,-,N/A,,Unknown,300,2012-10-07 04:51:00
1:51 AM,44.1,30.9,60,30.08,-9999.0,WNW,5.8,-,N/A,,Unknown,300,2012-10-07 05:51:00
2:51 AM,39.9,30.0,68,30.09,-9999.0,West,3.5,-,N/A,,Unknown,260,2012-10-07 06:51:00
3:51 AM,37.0,30.0,76,30.08,-9999.0,WSW,4.6,-,N/A,,Unknown,240,2012-10-07 07:51:00
4:51 AM,36.0,30.0,79,30.08,-9999.0,WSW,4.6,-,N/A,,Unknown,240,2012-10-07 08:51:00
5:51 AM,35.1,28.9,78,30.07,-9999.0,WSW,4.6,-,N/A,,Unknown,240,2012-10-07 09:51:00
6:51 AM,36.0,30.0,79,30.07,-9999.0,WSW,4.6,-,N/A,,Unknown,240,2012-10-07 10:51:00
7:51 AM,37.9,30.9,76,30.08,-9999.0,WSW,5.8,-,N/A,,Unknown,250,2012-10-07 11:51:00
8:51 AM,42.1,30.9,65,30.09,-9999.0,West,6.9,-,N/A,,Unknown,270,2012-10-07 12:51:00
9:51 AM,46.9,30.0,52,30.09,-9999.0,WNW,6.9,-,N/A,,Unknown,300,2012-10-07 13:51:00
10:51 AM,46.9,28.9,50,30.10,-9999.0,NW,6.9,-,N/A,,Unknown,310,2012-10-07 14:51:00
11:51 AM,48.0,32.0,54,30.10,-9999.0,WNW,6.9,-,N/A,,Unknown,300,2012-10-07 15:51:00
12:51 PM,48.9,32.0,52,30.10,-9999.0,NW,6.9,-,N/A,,Unknown,310,2012-10-07 16:51:00
1:51 PM,51.1,34.0,52,30.08,-9999.0,Calm,Calm,-,N/A,,Unknown,0,2012-10-07 17:51:00
2:51 PM,50.0,30.0,46,30.07,-9999.0,NW,6.9,-,N/A,,Unknown,310,2012-10-07 18:51:00
3:51 PM,51.1,24.1,35,30.07,-9999.0,Variable,4.6,-,N/A,,Unknown,0,2012-10-07 19:51:00
4:51 PM,48.9,24.1,38,30.07,-9999.0,Variable,4.6,-,N/A,,Unknown,0,2012-10-07 20:51:00
5:51 PM,48.0,25.0,41,30.07,-9999.0,WSW,5.8,-,N/A,,Unknown,240,2012-10-07 21:51:00
6:51 PM,46.9,28.0,48,30.07,-9999.0,WSW,3.5,-,N/A,,Unknown,240,2012-10-07 22:51:00
7:51 PM,44.1,30.9,60,30.08,-9999.0,Calm,Calm,-,N/A,,Unknown,0,2012-10-07 23:51:00
8:51 PM,45.0,32.0,60,30.09,-9999.0,Calm,Calm,-,N/A,,Unknown,0,2012-10-08 00:51:00
9:51 PM,42.1,34.0,73,30.09,-9999.0,Calm,Calm,-,N/A,,Unknown,0,2012-10-08 01:51:00
10:51 PM,44.1,34.0,68,30.10,-9999.0,Calm,Calm,-,N/A,,Unknown,0,2012-10-08 02:51:00
11:51 PM,44.1,33.1,65,30.10,-9999.0,WSW,4.6,-,N/A,,Unknown,240,2012-10-08 03:51:00